Owensboro, KY

1:48 AM CDT on May 27, 2017 (GMT -0500)
Owensboro-Daviess County

Weather History for KOWB - October, 2011

Change the Weather History Date:

Thursday, October 13, 2011

  Actual Average Record
Temperature  
Mean Temperature 62 °F -  
Max Temperature 68 °F 74 °F 89 °F (1989)
Min Temperature 56 °F 47 °F 28 °F (1980)
Degree Days  
Heating Degree Days 2    
Growing Degree Days 12 (Base 50)    
Moisture  
Dew Point 59 °F    
Average Humidity 89    
Maximum Humidity 100    
Minimum Humidity 73    
Precipitation  
Precipitation 0.19 in - - ()
Sea Level Pressure  
Sea Level Pressure 29.62 in    
Wind  
Wind Speed 7 mph (West)    
Max Wind Speed 13 mph    
Max Gust Speed -    
Visibility 8 miles    
Events Rain    
Averages and records for this station are not official NWS values.
T = Trace of Precipitation, MM = Missing Value Source: NWS Daily Summary

Daily Weather History Graph

Daily Weather History Graph

Search for Another Location

Airport or City:

Trip Planner

Search our weather history database for the weather conditions in past years. The results will help you decide how hot, cold, wet, or windy it might be!

Date:

Astronomy

Oct. 13, 2011 Rise Set
Actual Time 6:54 AM CDT 6:14 PM CDT
Civil Twilight 6:28 AM CDT 6:40 PM CDT
Nautical Twilight 5:58 AM CDT 7:11 PM CDT
Astronomical Twilight 5:27 AM CDT 7:41 PM CDT
Moon 6:53 PM CDT (10/13) 8:23 AM CDT (10/13)
Length of Visible Light 12h 12m
Length of Day
11h 19m
Full, 98% of the Moon is Illuminated
Oct 13
Full
Oct 19
Last Quarter
Oct 26
New
Nov 2
First Quarter
Nov 10
Full

Hourly Weather History & Observations

Time (CDT) Temp. Dew Point Humidity Pressure Visibility Wind Dir Wind Speed Gust Speed Precip Events Conditions
12:56 AM 61.9 °F 56.8 °F 84% 29.67 in 10.0 mi South 4.6 mph - N/A   Clear
1:56 AM 63.0 °F 57.9 °F 84% 29.65 in 10.0 mi SSW 5.8 mph - N/A   Mostly Cloudy
2:24 AM 64.4 °F 59.0 °F 83% 29.65 in 10.0 mi WSW 9.2 mph - 0.00 in Rain Light Rain
2:33 AM 64.4 °F 59.0 °F 83% 29.65 in 10.0 mi West 8.1 mph - 0.00 in Rain Light Rain
2:56 AM 63.0 °F 59.0 °F 87% 29.63 in 8.0 mi West 6.9 mph - 0.00 in Rain Light Rain
3:17 AM 62.6 °F 60.8 °F 94% 29.64 in 2.5 mi West 6.9 mph - 0.06 in Rain Heavy Rain
3:25 AM 60.8 °F 60.8 °F 100% 29.64 in 2.5 mi West 8.1 mph - 0.10 in Rain Heavy Rain
3:35 AM 60.8 °F 60.8 °F 100% 29.65 in 4.0 mi West 8.1 mph - 0.13 in Rain Rain
3:56 AM 61.0 °F 59.9 °F 96% 29.63 in 3.0 mi West 8.1 mph - 0.16 in Rain Rain
4:09 AM 60.8 °F 60.8 °F 100% 29.64 in 3.0 mi WSW 6.9 mph - 0.02 in Rain Rain
4:20 AM 60.8 °F 60.8 °F 100% 29.64 in 5.0 mi WSW 6.9 mph - N/A Rain Rain
4:56 AM 60.8 °F 60.8 °F 100% 29.64 in 5.0 mi SSW 3.5 mph - N/A Rain Light Rain
5:56 AM 59.9 °F 59.9 °F 100% 29.62 in 8.0 mi SSW 4.6 mph - 0.02 in Rain Light Rain
6:56 AM 59.9 °F 59.9 °F 100% 29.61 in 10.0 mi SSW 4.6 mph - 0.00 in   Overcast
7:42 AM 60.8 °F 60.8 °F 100% 29.62 in 8.0 mi SW 5.8 mph - 0.00 in   Overcast
7:56 AM - - N/A% 29.62 in 8.0 mi SW 4.6 mph - 0.00 in   Overcast
8:56 AM 61.0 °F 61.0 °F 100% 29.61 in 6.0 mi SW 4.6 mph - 0.01 in Rain Light Rain
9:30 AM 62.6 °F 60.8 °F 94% 29.61 in 10.0 mi SW 5.8 mph - 0.00 in   Overcast
9:56 AM 61.9 °F 61.9 °F 100% 29.60 in 10.0 mi WSW 6.9 mph - 0.00 in   Overcast
10:00 AM 62.6 °F 60.8 °F 94% 29.61 in 10.0 mi West 8.1 mph - N/A   Overcast
10:11 AM 62.6 °F 60.8 °F 94% 29.61 in 9.0 mi West 8.1 mph - N/A   Overcast
10:28 AM 64.4 °F 60.8 °F 88% 29.60 in 10.0 mi West 9.2 mph - N/A   Overcast
10:36 AM 64.4 °F 60.8 °F 88% 29.60 in 10.0 mi West 9.2 mph - N/A   Overcast
10:56 AM 63.9 °F 61.0 °F 90% 29.60 in 10.0 mi WNW 8.1 mph - N/A   Overcast
11:42 AM 64.4 °F 60.8 °F 88% 29.60 in 10.0 mi WNW 11.5 mph - N/A   Overcast
11:56 AM 65.8 °F 59.9 °F 81% 29.59 in 10.0 mi WNW 8.1 mph - N/A   Mostly Cloudy
12:56 PM 68.0 °F 59.0 °F 73% 29.57 in 10.0 mi West 12.7 mph - N/A   Mostly Cloudy
1:56 PM 66.9 °F 57.9 °F 73% 29.56 in 10.0 mi WNW 12.7 mph - N/A   Mostly Cloudy
2:56 PM 63.0 °F 59.0 °F 87% 29.57 in 10.0 mi WNW 10.4 mph - 0.00 in   Mostly Cloudy
3:56 PM 64.9 °F 55.9 °F 73% 29.58 in 10.0 mi WNW 10.4 mph - N/A   Overcast
4:56 PM 64.9 °F 56.8 °F 75% 29.59 in 10.0 mi WNW 12.7 mph - N/A   Mostly Cloudy
5:56 PM 62.6 °F 57.2 °F 82% 29.62 in 10.0 mi WNW 9.2 mph - N/A   Mostly Cloudy
6:56 PM 63.0 °F 54.9 °F 75% 29.63 in 10.0 mi West 5.8 mph - N/A   Overcast
7:56 PM 59.9 °F 54.9 °F 83% 29.65 in 10.0 mi WSW 4.6 mph - N/A   Mostly Cloudy
8:56 PM 59.0 °F 54.9 °F 86% 29.66 in 10.0 mi West 6.9 mph - N/A   Scattered Clouds
9:56 PM 57.9 °F 54.0 °F 87% 29.67 in 10.0 mi West 6.9 mph - N/A   Clear
10:56 PM 57.9 °F 52.0 °F 81% 29.68 in 10.0 mi WNW 6.9 mph - N/A   Partly Cloudy
11:56 PM 56.8 °F 50.0 °F 78% 29.68 in 10.0 mi WNW 5.8 mph - N/A   Clear